Location: Quaker Farms
(41.4276°N, 73.1557°W)
Time: 00:22:58
(UTC+00:00)

Altair - Pass Details

Date: 20 June 2021
Orbit: 1501 x 1682 km, 47.2° (Epoch: 23 July)

Event Time Altitude Azimuth Distance (km) Brightness Sun altitude
Rises 15:08:01 0° 179° (S) 4,631 10.2 61.5°
Reaches altitude 10° 15:12:24 10° 161° (SSE) 3,672 10.0 62.2°
Maximum altitude 15:17:48 17° 124° (SE) 3,175 9.9 63.0°
Drops below altitude 10° 15:23:17 10° 88° (E) 3,751 10.0 63.8°
Sets 15:27:47 0° 70° (ENE) 4,775 10.3 64.5°
